Camp Pendleton, CA

1:32 PM PDT on April 24, 2017 (GMT -0700)
Camp Pendleton Marine Corps Air Station

Weather History for KNFG - February, 2013

Change the Weather History Date:

Friday, February 1, 2013

  Actual Average Record
Temperature  
Mean Temperature 56 °F -  
Max Temperature 73 °F 65 °F 75 °F (2003)
Min Temperature 39 °F 38 °F 27 °F (2002)
Degree Days  
Heating Degree Days 9    
Growing Degree Days 6 (Base 50)    
Moisture  
Dew Point 39 °F    
Average Humidity 59    
Maximum Humidity 83    
Minimum Humidity 26    
Precipitation  
Precipitation 0.00 in - - ()
Sea Level Pressure  
Sea Level Pressure 30.14 in    
Wind  
Wind Speed 2 mph (SSE)    
Max Wind Speed 9 mph    
Max Gust Speed -    
Visibility 10 miles    
Events      
Averages and records for this station are not official NWS values.
T = Trace of Precipitation, MM = Missing Value Source: NWS Daily Summary

Daily Weather History Graph

Daily Weather History Graph

Search for Another Location

Airport or City:

Trip Planner

Search our weather history database for the weather conditions in past years. The results will help you decide how hot, cold, wet, or windy it might be!

Date:

Astronomy

Feb. 01, 2013 Rise Set
Actual Time 6:44 AM PST 5:21 PM PST
Civil Twilight 6:18 AM PST 5:47 PM PST
Nautical Twilight 5:49 AM PST 6:17 PM PST
Astronomical Twilight 5:20 AM PST 6:46 PM PST
Moon 11:11 PM PST (2/1) 9:41 AM PST (2/1)
Length of Visible Light 11h 28m
Length of Day
10h 36m
Waning Gibbous, 69% of the Moon is Illuminated
Feb 1
Waning Gibbous
Feb 3
Last Quarter
Feb 9
New
Feb 17
First Quarter
Feb 25
Full

Hourly Weather History & Observations

Time (PST) Temp. Windchill Dew Point Humidity Pressure Visibility Wind Dir Wind Speed Gust Speed Precip Events Conditions
12:54 AM 42.1 °F - 37.0 °F 82% 30.14 in 10.0 mi Calm Calm - N/A   Clear
1:54 AM 39.9 °F - 35.1 °F 83% 30.14 in 10.0 mi Calm Calm - N/A   Clear
2:54 AM 42.1 °F - 36.0 °F 79% 30.14 in 10.0 mi Calm Calm - N/A   Clear
3:54 AM 41.0 °F 38.0 °F 36.0 °F 82% 30.14 in 10.0 mi ENE 4.6 mph - N/A   Clear
4:54 AM 39.0 °F - 34.0 °F 82% 30.14 in 10.0 mi Calm Calm - N/A   Clear
5:54 AM 42.1 °F - 36.0 °F 79% 30.14 in 10.0 mi Calm Calm - N/A   Clear
6:54 AM 39.9 °F - 34.0 °F 79% 30.13 in 10.0 mi Calm Calm - N/A   Partly Cloudy
7:54 AM 48.9 °F - 39.0 °F 69% 30.15 in 10.0 mi Calm Calm - N/A   Partly Cloudy
8:54 AM 57.9 °F - 39.9 °F 51% 30.14 in 10.0 mi Calm Calm - N/A   Partly Cloudy
9:54 AM 70.0 °F - 39.0 °F 32% 30.15 in 10.0 mi Calm Calm - N/A   Partly Cloudy
10:54 AM 73.0 °F - 39.9 °F 30% 30.15 in 10.0 mi SSW 5.8 mph - N/A   Scattered Clouds
11:54 AM 70.0 °F - 39.0 °F 32% 30.14 in 10.0 mi SSW 9.2 mph - N/A   Scattered Clouds
12:54 PM 73.0 °F - 37.9 °F 28% 30.11 in 10.0 mi South 8.1 mph - N/A   Scattered Clouds
1:54 PM 73.0 °F - 36.0 °F 26% 30.11 in 10.0 mi SSW 8.1 mph - N/A   Mostly Cloudy
2:54 PM 71.1 °F - 37.0 °F 29% 30.10 in 10.0 mi South 8.1 mph - N/A   Mostly Cloudy
3:54 PM 70.0 °F - 41.0 °F 35% 30.10 in 10.0 mi South 4.6 mph - N/A   Mostly Cloudy
4:54 PM 66.0 °F - 45.0 °F 47% 30.09 in 10.0 mi ESE 3.5 mph - N/A   Clear
5:54 PM 61.0 °F - 44.1 °F 54% 30.12 in 10.0 mi Calm Calm - N/A   Clear
6:54 PM 55.9 °F - 43.0 °F 62% 30.13 in 10.0 mi Calm Calm - N/A   Clear
7:54 PM 53.1 °F - 42.1 °F 66% 30.15 in 10.0 mi Calm Calm - N/A   Clear
8:54 PM 50.0 °F - 41.0 °F 71% 30.16 in 10.0 mi Calm Calm - N/A   Clear
9:54 PM 50.0 °F - 42.1 °F 74% 30.18 in 10.0 mi Calm Calm - N/A   Clear
10:54 PM 48.9 °F - 41.0 °F 74% 30.18 in 10.0 mi Calm Calm - N/A   Clear
11:54 PM 51.1 °F - 43.0 °F 74% 30.17 in 10.0 mi ENE 6.9 mph - N/A   Clear